This is the latest recevied weather packets stored in our database for station/object KC8YYF. If no packets are shown the sender has not sent any weather packets the latest 10 day(s).
| Time | Temp. | Humidity | Pressure | Rain* | Wind** | Luminosity | Snow |
|---|---|---|---|---|---|---|---|
| 1777657705 | 7.78° C | 98% | 1012.4 hPa | 0 mm | - | 35 W/m² | - |
| 1777657402 | 7.22° C | 98% | 1012.6 hPa | 0 mm | - | 37 W/m² | - |
| 1777657100 | 7.22° C | 97% | 1012.6 hPa | 0 mm | - | 48 W/m² | - |
| 1777656797 | 7.22° C | 97% | 1012.7 hPa | 0.51 mm | - | 40 W/m² | - |
| 1777656492 | 7.22° C | 97% | 1012.8 hPa | 0.51 mm | - | 24 W/m² | - |
| 1777656188 | 7.22° C | 97% | 1012.8 hPa | 0.51 mm | - | 21 W/m² | - |
| 1777655884 | 7.22° C | 97% | 1012.6 hPa | 0.51 mm | - | 20 W/m² | - |
| 1777655581 | 7.22° C | 97% | 1012.7 hPa | 0 mm | - | 29 W/m² | - |
| 1777655277 | 6.67° C | 97% | 1013 hPa | 0 mm | - | 38 W/m² | - |
| 1777654975 | 7.22° C | 96% | 1012.9 hPa | 0.51 mm | - | 31 W/m² | - |
| 1777654671 | 7.22° C | 96% | 1012.9 hPa | 0.51 mm | - | 22 W/m² | - |
| 1777654369 | 6.67° C | 96% | 1012.8 hPa | 0 mm | - | 15 W/m² | - |
| 1777654067 | 6.67° C | 96% | 1013 hPa | 0 mm | - | 17 W/m² | - |
| 1777653764 | 6.67° C | 95% | 1013 hPa | 0 mm | - | 15 W/m² | - |
| 1777653459 | 6.67° C | 95% | 1012.7 hPa | 0 mm | - | 13 W/m² | - |
| 1777653157 | 7.22° C | 95% | 1012.9 hPa | 0.51 mm | - | 24 W/m² | - |
| 1777652853 | 6.67° C | 95% | 1012.9 hPa | 0 mm | - | 32 W/m² | - |
| 1777652549 | 6.67° C | 94% | 1012.8 hPa | 0.51 mm | - | 23 W/m² | - |
| 1777652247 | 6.67° C | 94% | 1012.9 hPa | 0 mm | - | 18 W/m² | - |
| 1777651944 | 7.22° C | 93% | 1013.1 hPa | 0.51 mm | - | 17 W/m² | - |
| 1777651640 | 7.22° C | 93% | 1012.9 hPa | 1.27 mm | - | 21 W/m² | - |
| 1777651338 | 7.22° C | 92% | 1013.1 hPa | 0.51 mm | - | 21 W/m² | - |
| 1777651035 | 7.22° C | 92% | 1013.1 hPa | 0 mm | - | 23 W/m² | - |
| 1777650732 | 7.22° C | 92% | 1013 hPa | 0 mm | - | 26 W/m² | - |
| 1777650429 | 7.22° C | 92% | 1013 hPa | 0 mm | - | 31 W/m² | - |
* Rain latest hour (hover to see other rain measurements)
** Current wind speed in m/s (hover to see current wind gust speed)